Погода в Меленске

Россия / Брянская область     52°37′57″N   32°55′40″E
темп.,
°C
ветер,
м/с
пор.,
м/с
влажн.,
%
обл.,
%
осадки,
мм/ч
давл.,
гПа
погр.,
м
1 декабря, ср
ср100:00−2з7117788 0.0 993882
03:00−2юз5108399 0.0 994686
06:00−2юз598696 0.0 993502
09:00−2юз4996100 0.4 994486
12:000з5788100 0.6 995638
15:00−1зсз5974100 0.8 997877
18:00−3зсз5108361 0.0 999600
21:00−4зсз5108994 0.0 1002678
2 декабря, чт
чт200:00−5з379341 0.0 1003326
03:00−5юз3693100 0.0 1004201
06:00−4ю51185100 0.0 1003452
09:00−3ю71694100 0.3 1001595
12:00−1ююз81696100 1.1 1000620
15:00+1ююз71696100 2.6 1000624
18:00+1ююз61398100 0.2 1001549
21:00+2юз51294100 0.2 1002353
3 декабря, пт
пт300:00+1ююз41194100 0.0 1003244
03:00+1ююз41095100 0.0 1004203
06:00+1ююв3796100 0.0 1003172
09:00+1ююв5129299 0.0 1003303
12:00+2ю71698100 0.0 1001587
15:00+4ююз71488100 0.0 1000648
18:00+1юз51198100 1.7 1002520
21:000зсз5997100 2.6 1004435
4 декабря, сб
сб400:00−1з51194100 0.0 1007544
03:00−1зсз5787100 0.0 1009549
06:00−2зюз378713 0.0 1011341
09:00−3юз38946 0.0 1012233
12:00−1юз488170 0.0 1013412
15:00−1юз48795 0.0 1013461
18:00−2ююз36875 0.0 1014116
21:00−3юз238839 0.0 101554
5 декабря, вс
вс500:00−3юз1189100 0.0 101512
03:00−2св2289100 0.0 101536
06:00−3в2492100 0.0 1015127
09:00−3всв379399 0.0 1015203
12:00−1всв478499 0.0 1014289
15:00−1св4885100 0.0 1014340
18:00−3св5109352 0.0 1014269
21:00−3св5119045 0.0 1014330